I8ZSE-10 Weather Reports


time (UTC)temp
C
wind
direction
speed
KPH
gust
KPH
rain 1hr
cm
rain 24hr
cm
rain mn
cm
humidity
%
barometer
mb
20260507183508 15 188 4.8 11.3 15.98 2.92 2.90 75 1013.9
20260507182509 15 131 4.8 12.9 15.98 2.90 2.87 76 1013.9
20260507181508 15 117 4.8 12.9 15.98 2.87 2.82 77 1013.8
20260507180508 15 171 3.2 12.9 15.98 2.84 2.79 76 1013.9
20260507175508 15 168 4.8 14.5 15.98 2.82 2.77 74 1014.0
20260507174508 15 123 4.8 14.5 15.98 2.79 2.74 73 1014.1
20260507173508 16 150 4.8 16.1 15.98 2.77 2.72 72 1014.1
20260507172508 16 111 4.8 17.7 15.98 2.74 2.69 71 1014.2
20260507171508 16 128 6.4 17.7 15.98 2.72 2.67 69 1014.3
20260507170508 16 174 6.4 17.7 15.98 2.69 2.64 67 1014.3
20260507165508 16 112 8.0 17.7 15.98 2.67 2.62 66 1014.5
20260507164508 17 118 8.0 17.7 15.98 2.64 2.59 65 1014.7
20260507163508 17 118 8.0 17.7 15.98 2.62 2.57 65 1014.7
20260507162509 17 91 8.0 19.3 15.98 2.59 2.54 66 1014.8
20260507161508 18 180 8.0 17.7 15.98 2.57 25.22 66 1014.9
20260507160508 18 124 8.0 17.7 15.98 25.37 24.97 66 1015.0
20260507155508 18 104 9.7 19.3 15.98 25.12 24.69 65 1015.2
20260507154508 18 105 8.0 17.7 15.98 24.84 24.43 63 1015.3
20260507153508 18 113 9.7 17.7 15.98 24.59 24.16 62 1015.4
20260507152511 19 101 8.0 17.7 15.98 24.31 23.90 62 1015.5
20260507151508 19 107 8.0 17.7 15.98 24.05 23.62 61 1015.6
20260507150508 20 103 9.7 17.7 15.98 23.77 23.37 59 1015.7
20260507145508 20 162 9.7 17.7 15.98 23.52 23.09 60 1015.7
20260507144508 20 103 9.7 17.7 15.98 23.24 22.83 61 1015.7
20260507143508 20 163 9.7 17.7 15.98 22.99 22.56 62 1015.7
20260507142508 20 113 9.7 16.1 15.98 22.71 22.30 62 1015.8
20260507141508 20 145 9.7 16.1 15.98 22.45 22.02 64 1015.8
20260507140508 20 119 9.7 16.1 15.98 22.17 21.77 64 1015.8
20260507135508 20 117 9.7 16.1 15.98 21.92 21.51 66 1015.9
20260507134508 20 109 9.7 16.1 15.98 21.64 21.23 67 1015.9
20260507133508 20 112 9.7 14.5 16.51 21.39 20.98 67 1016.0
20260507132508 20 105 8.0 16.1 16.51 21.11 20.70 68 1016.1
20260507131508 20 118 8.0 14.5 16.51 20.85 20.45 68 1016.3
20260507130508 20 111 8.0 14.5 16.51 20.57 20.17 66 1016.4
20260507125508 20 172 8.0 14.5 16.51 20.32 19.91 65 1016.5
20260507124508 20 119 8.0 12.9 16.51 20.04 19.63 66 1016.6
20260507123508 20 116 6.4 12.9 15.98 19.74 19.30 65 1016.7
20260507122508 20 158 6.4 12.9 15.98 19.46 19.05 64 1016.7
20260507121508 20 141 6.4 11.3 15.98 19.20 18.77 64 1016.8
20260507120508 20 159 4.8 11.3 15.98 18.92 18.52 63 1016.8
20260507115508 20 146 6.4 11.3 15.98 18.67 18.24 62 1016.9
20260507114508 20 156 4.8 11.3 15.98 18.39 17.98 64 1017.0
20260507113508 20 147 4.8 11.3 15.98 18.14 17.73 65 1016.9
20260507112508 19 159 4.8 11.3 15.98 17.86 17.45 67 1017.0
20260507111509 19 28 3.2 9.7 15.98 17.60 17.20 68 1017.1
20260507110508 19 171 3.2 11.3 15.98 17.32 16.92 67 1017.1
20260507105508 20 123 3.2 11.3 15.98 17.07 16.66 66 1017.2
20260507104508 19 171 3.2 11.3 15.98 16.79 16.38 67 1017.2
20260507103508 19 143 3.2 11.3 16.51 16.54 16.13 68 1017.2
20260507102508 19 214 3.2 12.9 16.51 16.26 15.85 68 1017.2
20260507101508 18 145 3.2 11.3 16.51 16.00 15.60 73 1017.0
20260507100508 18 189 3.2 9.7 16.51 15.72 15.32 70 1017.1
20260507095508 19 121 3.2 11.3 17.04 15.47 15.06 68 1017.3
20260507094509 19 162 3.2 9.7 17.04 15.19 14.78 69 1017.2
20260507093408 18 86 4.8 9.7 17.04 14.88 14.48 69 1017.0
20260507092408 18 26 4.8 11.3 17.04 14.61 14.20 72 1016.9
20260507091408 18 176 4.8 11.3 17.04 14.35 13.94 73 1016.8
20260507090408 17 171 4.8 9.7 17.04 14.07 13.67 74 1016.5
20260507085208 17 119 3.2 9.7 16.51 13.72 13.28 76 1016.3
20260507084208 17 128 3.2 11.3 15.98 13.39 12.98 77 1016.2
20260507083208 16 155 3.2 11.3 16.51 13.13 12.70 79 1015.9
20260507082208 16 134 3.2 11.3 18.11 12.85 12.45 82 1015.8
20260507081208 16 138 3.2 11.3 18.11 12.60 12.17 83 1015.7
20260507080208 16 124 4.8 12.9 19.18 12.32 11.91 82 1015.6
20260507075208 16 173 3.2 12.9 19.71 12.06 11.63 83 1015.5
20260507074208 15 135 4.8 12.9 20.24 11.79 11.38 84 1015.5
20260507073208 15 180 4.8 12.9 19.71 11.40 11.00 85 1015.4
20260507072108 14 149 4.8 11.3 17.58 10.87 10.46 90 1015.3
20260507070808 13 173 4.8 9.7 17.04 10.57 10.16 94 1015.2
20260507065808 13 224 3.2 9.7 18.11 10.29 9.88 92 1015.6
20260507064808 13 136 3.2 8.0 18.11 9.98 9.55 92 1016.1
20260507063808 13 178 3.2 6.4 17.58 9.65 9.25 94 1016.2
20260507062808 13 137 1.6 6.4 17.58 9.40 8.97 93 1016.3
20260507061808 14 183 1.6 6.4 17.58 9.12 8.71 91 1016.4
20260507060808 14 56 1.6 4.8 18.11 8.86 8.43 92 1016.2
20260507055608 13 176 1.6 4.8 16.51 8.43 8.03 94 1016.0
20260507054608 13 134 1.6 6.4 15.98 8.10 7.70 95 1016.0
20260507053608 13 238 3.2 6.4 15.98 7.85 7.44 96 1015.9
20260507052608 13 204 3.2 6.4 15.93 7.57 7.16 97 1015.7
20260507051608 12 233 1.6 4.8 15.85 7.32 6.91 98 1015.5
20260507050608 12 181 1.6 6.4 15.75 7.04 6.63 97 1015.4
20260507045608 12 223 1.6 4.8 15.44 6.78 6.38 97 1015.5
20260507044608 12 168 1.6 6.4 14.96 6.50 6.10 96 1015.7
20260507043608 12 117 1.6 6.4 14.45 6.25 5.84 95 1015.7
20260507042608 13 129 1.6 4.8 14.00 5.99 5.56 93 1016.0
20260507041608 13 332 1.6 6.4 14.83 5.71 5.31 92 1016.0
20260507040608 13 359 1.6 4.8 14.02 5.46 5.05 93 1015.9
20260507035611 12 9 1.6 4.8 13.79 5.23 4.83 94 1015.8
20260507034608 12 220 1.6 4.8 13.74 5.00 4.60 94 1015.7
20260507033608 12 215 1.6 4.8 13.74 4.80 4.39 94 1015.4
20260507032608 12 249 1.6 3.2 13.74 4.57 4.17 95 1015.2
20260507031308 12 263 1.6 1.6 12.80 4.19 3.78 94 1015.4
20260507030208 13 208 1.6 1.6 12.67 3.99 3.56 90 1015.8
20260507025208 13 266 1.6 3.2 12.52 3.76 3.35 90 1015.6
20260507024208 13 266 1.6 1.6 12.37 3.56 3.15 91 1015.7
20260507023208 13 257 1.6 3.2 12.19 3.33 2.92 92 1015.5
20260507022208 13 263 1.6 3.2 12.04 3.12 2.72 92 1015.4
20260507021208 13 224 1.6 3.2 11.96 2.92 25.12 92 1015.5
20260507020208 13 271 1.6 3.2 11.94 2.72 23.09 92 1015.4
20260507015208 12 267 3.2 4.8 11.94 25.25 21.11 93 1015.3
20260507014208 12 274 4.8 6.4 11.91 23.27 19.10 92 1015.2
20260507013209 13 252 3.2 4.8 11.81 21.26 17.12 91 1015.2
20260507012208 12 204 3.2 4.8 11.66 19.28 15.14 94 1015.1
20260507011208 13 258 3.2 4.8 11.30 17.30 13.13 91 1015.1
20260507010208 13 235 3.2 4.8 10.69 15.29 11.15 90 1015.1
20260507005208 13 242 1.6 3.2 9.75 13.31 9.17 91 1015.1
20260507004208 13 275 3.2 4.8 8.56 11.33 7.19 91 1015.3
20260507003208 13 250 3.2 4.8 7.34 9.42 5.28 92 1015.5
20260507002208 13 263 3.2 4.8 6.12 7.59 3.45 92 1015.7
20260507001208 13 253 3.2 6.4 5.13 5.97 18.31 92 1015.7
20260507000208 13 242 3.2 6.4 4.19 4.60 4.67 91 1015.9
20260506235208 12 256 4.8 8.0 3.38 3.53 3.53 92 1015.8
20260506234208 12 250 4.8 8.0 2.67 2.77 2.77 92 1015.8
20260506233208 12 252 3.2 6.4 20.42 21.01 21.01 93 1015.7
20260506232208 12 260 3.2 6.4 14.55 14.76 14.76 93 1015.6
20260506231108 12 260 3.2 6.4 8.36 8.36 8.36 92 1015.5
20260506230008 12 250 3.2 4.8 3.40 3.40 3.40 90 1015.6
20260506225008 13 267 3.2 6.4 1.37 1.37 1.37 86 1015.7
20260506224008 13 248 3.2 4.8 0.84 0.84 0.84 84 1015.7
20260506223008 13 241 3.2 4.8 0.51 0.51 0.51 82 1015.8
20260506222008 13 209 3.2 4.8 0.15 0.15 0.15 81 1016.2
20260506221008 13 238 3.2 4.8 0.00 0.00 0.00 81 1016.3
20260506220008 13 248 3.2 4.8 0.00 0.00 0.00 82 1016.2
20260506215008 13 244 4.8 6.4 0.00 0.00 0.00 81 1016.2
20260506214008 13 265 3.2 6.4 0.00 0.00 0.00 81 1016.3
20260506213008 13 252 4.8 6.4 0.00 0.00 0.00 80 1016.3
20260506212008 13 264 3.2 6.4 0.00 0.00 0.00 80 1016.4
20260506211008 13 279 3.2 6.4 0.00 0.00 0.00 80 1016.4
20260506210008 13 271 4.8 8.0 0.00 0.00 0.00 79 1016.5
20260506205008 14 284 6.4 9.7 0.00 0.00 0.00 76 1016.7
20260506203008 14 255 6.4 11.3 0.00 0.00 0.00 73 1016.4
20260506202008 14 268 4.8 8.0 0.00 0.00 0.00 71 1016.3
20260506201008 15 220 4.8 8.0 0.00 0.00 0.00 68 1016.3
20260506200008 15 274 4.8 8.0 0.00 0.00 0.00 64 1016.3
20260506195008 15 265 4.8 8.0 0.00 0.00 0.00 62 1016.1
20260506194008 15 254 4.8 8.0 0.00 0.00 0.00 62 1016.0
20260506193008 15 271 4.8 8.0 0.00 0.00 0.00 61 1015.8
20260506192008 15 261 4.8 8.0 0.00 0.00 0.00 60 1015.6
20260506191008 16 272 4.8 6.4 0.00 0.00 0.00 61 1015.5
20260506190008 15 261 4.8 6.4 0.00 0.00 0.00 63 1015.4
20260506185008 15 262 4.8 8.0 0.00 0.00 0.00 64 1015.3
20260506184008 16 259 4.8 8.0 0.00 0.00 0.00 64 1015.3